Погода в Евлахе

Погода в Евлахе : погода сейчас, прогноз погоды и архив. Всё, что Вы хотите узнать о погоде в Евлахе!

Поиск расширенной информации на нашем сайте:

Другие новости

Новости СМИ2

Главная страница сайта

Новости сайта

03.07.2017

Напоминаем, что на нашем специализированном сайте Метеоцентр.Азия вы можете получить высокодетализированные автоматические прогнозы погоды по пунктам России, СНГ и мира в авиационном формате (включающие направление и скорость ветра, видимость, явления погоды, количество и форму облачности, нижнюю и верхнюю границу облачности).


Погода в Евлахе - сегодня

Время (UTC), дата Ветер
(°,м/с) 
Видим.   Явления Облачность Т
(°С)
Тd
(°С)
f(%) Тe
(°С)
Pmin
(гПа)
dP
(гПа)
Po
(мм)
O2
(г/м3)
Тmin Tmax R s Состояние
почвы
00 20.05.18 тихо ()   20000 м    ясно 
+14.8 +10 73 +16  1016.3  -0.2  761  289           
03 20.05.18 130 (ЮВ) 20000 м    8/0 верхняя 
[Cc]
+18.2 +10.6 61 +22  1016.6  0.4  761  286           
09 20.05.18 130 (ЮВ) 20000 м    ясно 
+29.7 +5 21 +30  1015.2  -1.4  760  276           
12 20.05.18 050 (СВ) 20000 м    ясно 
+28.4 +8.2 28 +28  1014.4  -0.8  760  276           
15 20.05.18 030 (СВ) 20000 м    6/0 верхняя 
[Ci]
+27.4 +10.2 34 +29  1013.1  -1.3  759  276           
21 20.05.18 050 (СВ) 20000 м    ясно 
+21.5 +13.1 59 +27  1014.4  -0.3  760  281           
00 21.05.18 320 (СЗ) 20000 м    ясно 
+17.8 +13 73 +24  1014.3  -0.2  759  285           
03 21.05.18 020 (С) 20000 м    4/0 средняя 
[Ac As]
+19.6 +14 70 +28  1014.8  0.6  760  283           
06 21.05.18 020 (С) 20000 м    10/0 средняя 
[Ac und]
+23.2 +14.2 57 +30  1015.8  761  280  +17.8         
09 21.05.18 080 (В) 20000 м    10/10 1000 м кучево-дожд. 
[Cb cap]
+27.4 +9.4 32 +28  1015  -0.8  760  277           
12 21.05.18 тихо ()   20000 м    8/0 верхняя 
[Ci fib]
+30.5 +5.8 21 +31  1013.2  -1.8  759  274           
15 21.05.18 240 (ЮЗ) 20000 м    8/0 верхняя 
[Ci fib]
+27.9 +8.9 30 +28  1013.2  759  276           
21 21.05.18 340 (С) 20000 м    ясно 
+21.2 +14.6 66 +29  1014.6  -0.4  760  281           
00 22.05.18 100 (В) 20000 м    ясно 
+20.8 +15.1 70 +29  1015.9  1.3  761  282           
03 22.05.18 250 (З) 20000 м    8/0 верхняя 
[Ci fib]
+21.6 +14.9 66 +30  1017.2  1.3  762  281           
06 22.05.18 250 (З) 20000 м    8/0 средняя 
[Ac As]
+24.7 +14.9 54 +33  1018.4  1.2  763  279  +20.1         
09 22.05.18 240 (ЮЗ) 20000 м    ясно 
+31.6 +8.8 24 +32  1017.6  -0.8  762  274           
12 22.05.18 130 (ЮВ) 20000 м    ясно 
+32.8 +9.8 24 +33  1016.4  -1.2  761  272           
15 22.05.18 170 (Ю) 20000 м    ясно 
+29.9 +11.2 32 +32  1016.4  761  274           
21 22.05.18 140 (ЮВ) 20000 м    ясно 
+19.2 +13 67 +25  1018.3  0.1  762  285           
00 23.05.18 130 (ЮВ) 20000 м    ясно 
+18.9 +13.8 72 +26  1019.1  0.8  763  285           
03 23.05.18 150 (ЮВ) 20000 м    6/0 средняя 
[Ac trans]
+20.2 +14.8 71 +28  1019.8  0.7  764  283           
09 23.05.18 160 (Ю) 20000 м    ясно 
+32.4 +5 18 +32  1018.7  -1.5  763  274           
12 23.05.18 170 (Ю) 20000 м    ясно 
+34.1 +4.5 16 +34  1016.5  -2.1  761  272           
15 23.05.18 160 (Ю) 20000 м    ясно 
+32.5 +1.5 14 +33  1015.8  -0.8  761  274           
Время (UTC), дата Ветер
(°,м/с) 
Видим.   Явления Облачность Т
(°С)
Тd
(°С)
f(%) Тe
(°С)
Pmin
(гПа)
dP
(гПа)
Po
(мм)
O2
(г/м3)
Тmin Tmax R s Состояние
почвы

Для получения пояснительной информации подведите курсор к названию столбца.

ПОГОДА в Евлахе - архив

Всё, что Вы хотите узнать о погоде в Евлахе - удобно и подробно!

Выберите нужную дату (начиная с 1 января 2015* года) и нажмите кнопку "Найти".
Будут отображены архивные сводки погоды по пункту Евлах, начиная с указанной даты.


Отображать данные в формате CSV (для использования в таблицах Excel)


Внимание! Наш архив погоды предназначен исключительно для личного некоммерческого использования в познавательных целях. Если Вам необходимы официальные справки о состоянии погоды (для производственных, юридических, коммерческих и т.п. целей), обращайтесь в органы Росгидромета.

*Примечание: данная дата относится к архиву по метеостанциям СССР (Россия, СНГ, Балтия).
Архив по метеостанциям Зарубежной Европы и Азии (кроме Китая) хранится 10 дней, по другим регионам земного шара (Китай, Африка, Америка, Австралия, Океания) - 1 день.

Евлах - район местоположения метеостанции


Название, широта, долгота, высота метеостанции:
Евлах (АМСГ) 40.6°ш. 47.2°д. 15 м над ур. моря [Азербайджан]

Дополнительная информация

В oтличие oт бoльшинства пoгoдных сайтoв мы публикуем пoдрoбную метеoинфoрмацию в детальнoм прoфессиoнальнoм фoрмате.

Характеристики температуры и влажнoсти вoздуха измеряются на высoте 2 м в тени вдали oт зданий и деревьев.
Скoрoсть ветра измеряется на высoте 10 м (на урoвне рoста челoвека скoрoсть ветра ниже в 1.5-2 раза). Если метеoстанция нахoдится в гoрoде или в лесу, тo скoрoсть ветра занижена на 2-4 м/с пo сравнению с oткрытым местoм. Скoрoсть ветра над акватoриями крупных рек и oзёр, а также на вершинах хoлмoв на 2-5 м/с выше, чем в oбычных услoвиях.
Атмoсфернoе давление в разных тoчках местнoсти мoжет значительнo oтличаться oт давления на метеoстанции, в зависимoсти oт услoвий рельефа (при пoдъёме на 10 м давление пoнижается примернo на 1 мм рт.ст.).